This is the latest recevied weather packets stored in our database for station/object 4S6DRJ-13. If no packets are shown the sender has not sent any weather packets the latest 10 day(s).
| Time | Temp. | Humidity | Pressure | Rain* | Wind** | Luminosity | Snow |
|---|---|---|---|---|---|---|---|
| 1787895865 | 30° C | 78% | 1010.3 hPa | 0 mm | 1.79 m/s, 180° | 1136 W/m² | - |
| 1787895804 | 30° C | 77% | 1010.4 hPa | 0 mm | 1.79 m/s, 210° | 485 W/m² | - |
| 1787895743 | 30° C | 77% | 1010.6 hPa | 0 mm | 3.58 m/s, 216° | 432 W/m² | - |
| 1787895683 | 30° C | 77% | 1010.8 hPa | 0 mm | 2.68 m/s, 202° | 1119 W/m² | - |
| 1787895621 | 30° C | 78% | 1010.7 hPa | 0 mm | 2.68 m/s, 22° | 956 W/m² | - |
| 1787895560 | 30° C | 78% | 1010.5 hPa | 0 mm | 2.24 m/s, 208° | 1121 W/m² | - |
| 1787895499 | 30° C | 78% | 1010.7 hPa | 0 mm | 0.89 m/s, 224° | 1141 W/m² | - |
| 1787895438 | 30° C | 77% | 1010.8 hPa | 0 mm | 3.58 m/s, 223° | 529 W/m² | - |
| 1787895377 | 30.56° C | 77% | 1010.8 hPa | 0 mm | 4.47 m/s, 253° | 1117 W/m² | - |
| 1787895316 | 30.56° C | 77% | 1010.7 hPa | 0 mm | 2.68 m/s, 255° | 669 W/m² | - |
| 1787895255 | 30.56° C | 77% | 1010.7 hPa | 0 mm | 4.02 m/s, 272° | 1150 W/m² | - |
| 1787895194 | 30° C | 77% | 1010.8 hPa | 0 mm | 4.02 m/s, 221° | 1147 W/m² | - |
| 1787895133 | 30° C | 78% | 1010.7 hPa | 0 mm | 0.89 m/s, 271° | 1148 W/m² | - |
| 1787895072 | 30° C | 78% | 1010.7 hPa | 0 mm | 1.79 m/s, 274° | 618 W/m² | - |
| 1787895011 | 30° C | 78% | 1010.8 hPa | 0 mm | 2.68 m/s, 35° | 799 W/m² | - |
| 1787894950 | 30° C | 77% | 1010.6 hPa | 0 mm | 2.24 m/s, 247° | 1118 W/m² | - |
| 1787894889 | 30° C | 78% | 1010.7 hPa | 0 mm | 1.79 m/s, 115° | 1121 W/m² | - |
| 1787894828 | 30° C | 78% | 1010.7 hPa | 0 mm | 2.24 m/s, 253° | 451 W/m² | - |
| 1787894767 | 30.56° C | 77% | 1010.9 hPa | 0 mm | 4.47 m/s, 231° | 475 W/m² | - |
| 1787894706 | 30.56° C | 77% | 1010.8 hPa | 0 mm | 2.68 m/s, 218° | 399 W/m² | - |
| 1787894646 | 30.56° C | 77% | 1010.7 hPa | 0 mm | 4.02 m/s, 221° | 1148 W/m² | - |
| 1787894584 | 30.56° C | 77% | 1010.8 hPa | 0 mm | 1.79 m/s, 272° | 480 W/m² | - |
| 1787894523 | 30.56° C | 76% | 1010.9 hPa | 0 mm | 3.13 m/s, 241° | 508 W/m² | - |
| 1787894462 | 30.56° C | 75% | 1010.7 hPa | 0 mm | 4.02 m/s, 214° | 962 W/m² | - |
| 1787894401 | 30.56° C | 76% | 1010.9 hPa | 0 mm | 1.79 m/s, 228° | 470 W/m² | - |
* Rain latest hour (hover to see other rain measurements)
** Current wind speed in m/s (hover to see current wind gust speed)